Regional Weather Roundup
Issued by NWS

Home | Current Version | Previous Version | Text Only | Print | Product List | Glossary Off
Versions: 1 2 3 4 5 6 7 8 9 10 11 12 13 14 15 16 17 18 19 20 21 22 23 24 25 26 27 28 29 30 31 32 33 34 35 36 37 38 39 40 41 42 43 44 45 46 47 48 49 50

159
ASUS44 KJAN 062210
RWRMS

MISSISSIPPI HOURLY WEATHER ROUNDUP
NATIONAL WEATHER SERVICE JACKSON MS
400 PM CST FRI MAR 06 2015

NOTE: "FAIR: INDICATES FEW OR NO CLOUDS BELOW 12,000 FEET WITH NO
SIGNIFICANT WEATHER AND/OR OBSTRUCTIONS TO VISIBILITY.

MSZ001>002-007>008-010>013-018>021-025>028-034>036-062300-
NORTHWEST MISSISSIPPI

CITY           SKY/WX    TMP DP  RH WIND       PRES   REMARKS
CLARKSDALE     FAIR      36  18  48 CALM      30.54F
CLEVELAND      FAIR      39  24  55 N8        30.53F WCI  34
GREENWOOD      SUNNY     43  20  39 W9        30.51F
GREENVILLE     SUNNY     42  22  44 NE6       30.52F
OLIVE BRANCH   SUNNY     37  18  44 CALM      30.51S
OXFORD         FAIR      41  10  28 NW6       30.50F
TUNICA         CLEAR     36  21  55 CALM      30.54F
$$

MSZ003>006-009-014>017-022>024-029>033-037>039-062300-
NORTHEAST MISSISSIPPI

CITY           SKY/WX    TMP DP  RH WIND       PRES   REMARKS
COLUMBUS AFB   SUNNY     44  15  30 NW8       30.48S
CORINTH        FAIR      41   9  26 NW5       30.48F
GOLDN TRIANGLE SUNNY     43  23  45 NW7       30.48S
STARKVILLE     FAIR      43  16  33 N6        30.49R
TUPELO         SUNNY     43  15  32 NE8       30.49S
$$

MSZ040-058-062300-
CENTRAL MISSISSIPPI

CITY           SKY/WX    TMP DP  RH WIND       PRES   REMARKS
JACKSON INTL   MOSUNNY   48  17  29 N10       30.47F
JACKSON HAWKNS SUNNY     47  17  30 NW8       30.48S
MERIDIAN KEY   SUNNY     50  14  23 N8        30.44F
MERIDIAN NAS   MOSUNNY   48   9  20 N12       30.45F
VICKSBURG      SUNNY     44  20  38 N12       30.51F
$$

MSZ059>079-062300-
SOUTH MISSISSIPPI

CITY           SKY/WX    TMP DP  RH WIND       PRES   REMARKS
BROOKHAVEN     FAIR      48  23  37 N8        30.45S
HATTIESBURG    PTSUNNY   53  13  20 N9        30.42S
MCCOMB         PTSUNNY   52  10  18 N10       30.43S
NATCHEZ        FAIR      46  19  34 N10       30.48S
PINE BELT      PTSUNNY   52  14  22 N9        30.43S
$$

MSZ080>082-062300-
COASTAL MISSISSIPPI

CITY           SKY/WX    TMP DP  RH WIND       PRES   REMARKS
BAY ST LOUIS   SUNNY     55   1  11 N12       30.40S
BILOXI         MOSUNNY   54  18  23 NE7       30.38S
PASCAGOULA     MOSUNNY   56  14  19 N14       30.38F
GULFPORT       SUNNY     55  15  20 NE9       30.38F
$$



USA.gov is the U.S. government's official web portal to all federal, state and local government web resources and services.